TERRASAR-X

Last updated on Mon Sep 21 2026 00:02:45 GMT+0000 (Coordinated Universal Time)

1 31698U 07026A 26263.30555197 -.00000032 00000+0 16798-5 0 9997 2 31698 97.4472 269.6643 0001577 89.3022 270.8394 15.19151762 67668
UTC large
Height (km)
Speed (km/s)
/
Latitude / Longitude
Inclination (degrees)
Orbital Period (minutes)
Azimuth
Elevation
Range (km)
Doppler Factor

Next 0 passes for location: London (51.5072 / 0.1276)

No passes found over London.
TERRASAR-X